« Back
NWS Peachtree City, Ga » Text Product » GA Regional Weather Roundup


Printer-friendly Version
Current Version              Previous Versions:   1  2  3  4  5  6  7  8  9  

Regional Weather Roundup

463
ASUS42 KFFC 300703
RWRGA
WEATHER ROUNDUP FOR GEORGIA
NATIONAL WEATHER SERVICE PEACHTREE CITY GA
300 AM EDT MON MAY 30 2016

NOTE: "FAIR" INDICATES FEW OR NO CLOUDS BELOW 12,000 FEET WITH NO
SIGNIFICANT WEATHER AND/OR OBSTRUCTIONS TO VISIBILITY.

* = USE WITH CAUTION. THE STATIONS MARKED WITH AN ASTERISK MAY NOT
REPORT WEATHER SUCH AS PRECIPITATION, FOG, OR THUNDER AND ARE NOT
QUALITY CONTROLLED BY NWS.

THE REMARK "TC" DENOTES TEMPERATURE READING IN DEGREES CELSIUS.

GAZ001>058-300800-
NORTH GEORGIA

CITY           SKY/WX    TMP DP  RH WIND       PRES   REMARKS
ATLANTA        PTCLDY    69  62  78 SW5       30.03F
ATHENS         CLEAR     64  62  93 CALM      30.02F
CHAMBLEE       CLEAR     69  60  73 CALM      30.03F
ROME           CLEAR     66  63  90 CALM      30.01S
WEST ATLANTA   CLEAR     69  63  81 CALM      30.03S
GAINESVILLE    PTCLDY    66  61  84 W5        30.05F
CARTERSVILLE   CLEAR     64  63  96 CALM      30.03S


CITY           SKY/WX    TMP DP  RH WIND       PRES   REMARKS
DALTON*        PTCLDY    64  64 100 CALM      30.03S
CANTON*        CLEAR     64  61  88 CALM      30.06F
BLAIRSVILLE*     N/A    N/A N/A N/A MISG      30.08F HAZE
$$

GAZ059>098-102>109-300800-
CENTRAL GEORGIA

CITY           SKY/WX    TMP DP  RH WIND       PRES   REMARKS
AUGUSTA-BUSH   CLOUDY    67  64  90 NW7       29.96F
AUGUSTA-DANIEL CLOUDY    69  61  75 N7        29.97F
COLUMBUS       CLEAR     72  64  76 CALM      30.01F
MACON          PTCLDY    66  64  93 W3        30.00F


CITY           SKY/WX    TMP DP  RH WIND       PRES   REMARKS
LAGRANGE*      CLEAR     67  67 100 CALM      30.03S
SYLVANIA*      CLOUDY    70  66  87 NW5       29.95F
MILLEDGEVILLE* CLEAR     64  61  88 CALM      30.00F
$$

GAZ099>101-110>166-300800-
SOUTH GEORGIA

CITY           SKY/WX    TMP DP  RH WIND       PRES   REMARKS
SAVANNAH       CLOUDY    69  64  84 W6        29.95F
VALDOSTA       PTCLDY    71  68  90 CALM      29.99F
ALMA           PTCLDY    66  64  93 CALM      29.98F
ST SIMONS      CLOUDY    74  63  68 CALM      29.96F
ALBANY         PTCLDY    73  66  78 CALM      30.01F
BRUNSWICK      CLOUDY    77  64  65 W3        29.98S


CITY           SKY/WX    TMP DP  RH WIND       PRES   REMARKS
BAINBRIDGE*    CLEAR     72  68  88 W3        30.00F
MOULTRIE*      PTCLDY    72  68  88 CALM      30.00F
VIDALIA*       CLOUDY    72  61  68 NW5       29.99F
WAYCROSS*      CLOUDY    70  66  88 CALM      29.98F
DOUGLAS*       CLOUDY    73  68  83 CALM      30.00F
$$




USA.gov is the U.S. government's official web portal to all federal, state and local government web resources and services.